Content
SEND FEEDBACK

Daily
Averages
Monthly
Summary
United States of America

THOMAS, WEST VIRGINIA


Home > North America > United States > West Virginia
Elevation: 91 meters     Latitude: 39 09N     Longitude: 079 30W

WEATHER
 
SELECT A DAY
Number of Records: 40,772;   Date Range: 9/1/12 - 9/18/14
 
SHARE

PRINT THIS DATA

[ ← Previous Day ]
WEATHER ALMANAC - 31 JANUARY, 2013
[ Next Day → ]
[ °F ]   °C
Weather ElementAverageHighLow
Temperature2.4 °C12.1 °C (1:15 am)-0.5 °C (5:55 pm)
Dewpoint-5.2 °C8 °C (12:35 am)-11.2 °C (5:15 pm)
Humidity58 %83 % (5:35 am)44 % (5:15 pm)
Barometer1005.1 hPa1012.2 hPa (7:15 pm)990.2 hPa (12:35 am)
Wind Speed26.7 km/h55.5 km/h (2:15 am)
Wind Gust74 km/h (2:35 am)
Weather ElementAverage
Visibility14.3 km
Wind DirectionWSW (258.5 °)

Weather ElementTotal
Precipitation5.33 mm
Heating Degree Days12.6 (Base 18.3)
Averaged from 71 records on 31 January, 2013
WEATHER CONDITIONS BREAKOUT
WIND DIRECTION BREAKOUT
WEATHER BY HOUR - 31 JANUARY, 2013
[ °F ]   °C
Local TimeTemperatureDewpointHumidityBarometerVisibilityWind DirectionWind SpeedGust SpeedPrecipitationEventsConditions
12:35 AM11.5 °C8 °C79 %990.2 hPa16.1 kmSouth (190°)9.3 km/h0.25 mmRainLight Rain
12:55 AM11.1 °C8 °C81 %990.9 hPa16.1 kmWest (260°)5.6 km/h0.25 mmRainLight Rain
1:15 AM12.1 °C7.5 °C74 %991.5 hPa11.3 kmWest (280°)29.6 km/h38.9 km/h0.25 mmRainRain
1:35 AM10.2 °C5.1 °C71 %991.9 hPa16.1 kmWest (280°)33.3 km/h50.1 km/h0.51 mmRainLight Rain
1:55 AM11 °C4.8 °C66 %991.5 hPa16.1 kmWest (280°)27.8 km/h48.1 km/h0.51 mmMostly Cloudy
2:15 AM11 °C4.6 °C65 %992.2 hPa16.1 kmWNW (290°)55.5 km/h68.6 km/hScattered Clouds
2:35 AM7.3 °C2.6 °C72 %993.9 hPa16.1 kmWest (270°)37 km/h74 km/h1.78 mmScattered Clouds
2:55 AM7.8 °C2.2 °C68 %994.2 hPa16.1 kmWest (270°)35.2 km/h53.8 km/h1.78 mmRainLight Rain
3:15 AM6.9 °C2 °C71 %994.2 hPa16.1 kmWest (270°)50.1 km/h64.9 km/hDrizzle
3:35 AM6.1 °C1.1 °C71 %995.3 hPa16.1 kmWest (280°)38.9 km/h53.8 km/hLight Drizzle
3:55 AM6.5 °C0.2 °C64 %995.9 hPa16.1 kmWSW (250°)16.7 km/h44.4 km/hRainLight Rain
4:15 AM5.8 °C0.1 °C67 %995.9 hPa16.1 kmWest (270°)29.6 km/h53.8 km/hLight Drizzle
4:35 AM5.8 °C-1.1 °C61 %997 hPa16.1 kmWest (260°)33.3 km/h48.1 km/hRainLight Rain
4:55 AM5.3 °C-2.5 °C57 %997.6 hPa16.1 kmWest (260°)25.9 km/h48.1 km/hMostly Cloudy
5:15 AM4.6 °C-2.5 °C60 %998.6 hPa16.1 kmWNW (300°)24.1 km/h50.1 km/hOvercast
5:35 AM1.2 °C-1.4 °C83 %999.7 hPa1.9 kmWSW (250°)20.4 km/h42.6 km/hSnowLight Snow
5:55 AM1.7 °C-2.1 °C76 %1000 hPa11.3 kmWest (260°)22.2 km/h33.3 km/hSnowLight Snow
6:15 AM1.5 °C-2.6 °C74 %1001 hPa6.4 kmWest (280°)27.8 km/h40.7 km/hSnowLight Snow
6:35 AM0.8 °C-2 °C82 %1001.4 hPa6.4 kmNW (320°)25.9 km/h38.9 km/hSnowLight Snow
6:55 AM0.9 °C-2.4 °C79 %1001.7 hPa11.3 kmWest (260°)42.6 km/h61.2 km/hSnowLight Snow
7:15 AM1.4 °C-3.3 °C71 %1002.4 hPa16.1 kmWest (270°)27.8 km/h48.1 km/hSnowLight Snow
7:35 AM1.9 °C-5.1 °C60 %1003 hPa6.4 kmWSW (250°)38.9 km/h61.2 km/hSnowLight Snow
7:55 AM2.1 °C-5.9 °C56 %1003 hPa16.1 kmWNW (290°)31.5 km/h55.5 km/hOvercast
8:15 AM2.3 °C-5.1 °C58 %1003.4 hPa16.1 kmWest (270°)22.2 km/h44.4 km/hOvercast
8:35 AM2.3 °C-4.8 °C60 %1003.4 hPa11.3 kmWest (260°)29.6 km/h44.4 km/hSnowLight Snow
8:55 AM2.5 °C-5.5 °C56 %1003.7 hPa11.3 kmWSW (250°)42.6 km/h66.6 km/hOvercast
9:15 AM2.3 °C-5.2 °C58 %1004.4 hPa8 kmWest (270°)33.3 km/h42.6 km/hSnowLight Snow
9:35 AM2.4 °C-5.4 °C57 %1004.7 hPa16.1 kmWest (280°)20.4 km/h38.9 km/hOvercast
9:55 AM2.5 °C-6.7 °C51 %1005.4 hPa16.1 kmWSW (250°)27.8 km/h40.7 km/hOvercast
10:15 AM2.5 °C-7.1 °C50 %1005.8 hPa16.1 kmWest (280°)27.8 km/h44.4 km/hOvercast
10:35 AM2.7 °C-6.4 °C52 %1006.1 hPa16.1 kmWNW (300°)18.5 km/h27.8 km/hOvercast
10:55 AM2.3 °C-6.3 °C53 %1006.8 hPa16.1 kmWSW (240°)27.8 km/h59.2 km/hOvercast
11:15 AM2.1 °C-6.7 °C53 %1007.1 hPa16.1 kmWest (260°)38.9 km/h57.5 km/hOvercast
11:35 AM2 °C-6.6 °C53 %1007.5 hPa16.1 kmWSW (250°)27.8 km/h50.1 km/hOvercast
11:55 AM1.6 °C-6.8 °C54 %1007.8 hPa16.1 kmWSW (240°)27.8 km/h50.1 km/hOvercast
12:15 PM1.2 °C-7.6 °C52 %1007.8 hPa16.1 kmWest (270°)16.7 km/h38.9 km/hOvercast
12:35 PM1.3 °C-7.5 °C52 %1007.5 hPa16.1 kmWest (260°)20.4 km/h48.1 km/hOvercast
12:55 PM1.4 °C-6.8 °C55 %1007.5 hPa11.3 kmWSW (240°)16.7 km/h33.3 km/hOvercast
1:15 PM1 °C-5.4 °C63 %1007.8 hPa4 kmWNW (290°)46.3 km/h59.2 km/hSnowLight Snow
1:35 PM1.2 °C-6.2 °C58 %1007.5 hPa11.3 kmWest (260°)20.4 km/h35.2 km/hSnowLight Snow
1:55 PM2.1 °C-7.2 °C51 %1007.5 hPa16.1 kmWSW (250°)33.3 km/h42.6 km/hOvercast
2:15 PM1.6 °C-8.9 °C46 %1007.8 hPa11.3 kmWest (260°)38.9 km/h59.2 km/hOvercast
2:35 PM1.6 °C-8.9 °C46 %1007.8 hPa11.3 kmWest (260°)35.2 km/h59.2 km/hOvercast
2:55 PM1.3 °C-7.5 °C52 %1008.1 hPa11.3 kmWSW (240°)24.1 km/h50.1 km/hSnowLight Snow
3:15 PM0.5 °C-5.6 °C64 %1008.5 hPa4 kmWest (270°)18.5 km/hSnowLight Snow
3:35 PM0.7 °C-5.2 °C65 %1009.1 hPa11.3 kmSW (230°)20.4 km/h35.2 km/hSnowLight Snow
3:55 PM1.1 °C-7.6 °C53 %1009.1 hPa16.1 kmWSW (240°)31.5 km/h53.8 km/hOvercast
4:15 PM0.6 °C-8.6 °C51 %1009.8 hPa16.1 kmWNW (290°)38.9 km/h66.6 km/hOvercast
4:35 PM0.1 °C-8.9 °C51 %1010.2 hPa16.1 kmWest (260°)25.9 km/h44.4 km/hOvercast
4:55 PM-0.1 °C-10.9 °C45 %1010.5 hPa16.1 kmSW (230°)27.8 km/h51.8 km/hOvercast
5:15 PM-0.1 °C-11.2 °C44 %1010.8 hPa16.1 kmWNW (290°)20.4 km/h31.5 km/hOvercast
5:35 PM-0.4 °C-10.6 °C47 %1011.5 hPa16.1 kmWNW (290°)31.5 km/h48.1 km/hOvercast
5:55 PM-0.5 °C-10.8 °C46 %1011.5 hPa16.1 kmWest (260°)22.2 km/h35.2 km/hOvercast
6:15 PM-0.5 °C-10.5 °C47 %1011.5 hPa16.1 kmWest (280°)18.5 km/h25.9 km/hOvercast
6:35 PM-0.4 °C-10.2 °C48 %1011.5 hPa16.1 kmWest (260°)11.1 km/hOvercast
6:55 PM-0.2 °C-10 °C48 %1011.9 hPa16.1 kmWest (270°)13 km/h27.8 km/hOvercast
7:15 PM-0.3 °C-9.3 °C51 %1012.2 hPa16.1 kmWSW (250°)24.1 km/h33.3 km/hOvercast
7:35 PM-0.2 °C-9 °C52 %1011.9 hPa16.1 kmWSW (240°)20.4 km/h37 km/hOvercast
7:55 PM-0.1 °C-9.5 °C50 %1011.9 hPa16.1 kmWSW (240°)22.2 km/h46.3 km/hMostly Cloudy
8:15 PM-0.2 °C-9.4 °C50 %1011.5 hPa16.1 kmWest (270°)25.9 km/h40.7 km/hMostly Cloudy
8:35 PM-0.1 °C-9.3 °C50 %1011.9 hPa16.1 kmWSW (250°)29.6 km/h42.6 km/hMostly Cloudy
8:55 PM-0.1 °C-9.1 °C51 %1011.9 hPa16.1 kmWSW (240°)16.7 km/h40.7 km/hOvercast
9:15 PM0 °C-9.2 °C51 %1011.9 hPa16.1 kmWSW (240°)29.6 km/h48.1 km/hOvercast
9:35 PM0 °C-9.6 °C49 %1012.2 hPa16.1 kmWSW (240°)22.2 km/h61.2 km/hMostly Cloudy
9:55 PM0 °C-9.5 °C49 %1011.5 hPa16.1 kmWSW (250°)27.8 km/h46.3 km/hOvercast
10:15 PM0 °C-9.6 °C49 %1011.9 hPa16.1 kmWSW (240°)29.6 km/h50.1 km/hOvercast
10:35 PM-0.1 °C-9.2 °C51 %1011.5 hPa16.1 kmWest (270°)31.5 km/h40.7 km/hOvercast
10:55 PM-0.4 °C-8.6 °C54 %1011.5 hPa16.1 kmWest (260°)25.9 km/h46.3 km/hOvercast
11:15 PM-0.3 °C-8.8 °C53 %1011.5 hPa16.1 kmWSW (250°)16.7 km/h42.6 km/hOvercast
11:35 PM-0.4 °C-7.9 °C57 %1010.8 hPa16.1 kmWest (270°)13 km/hOvercast
11:55 PM-0.2 °C-8.1 °C56 %1010.2 hPa16.1 kmCalmOvercast
Hourly data recorded from KW99, located 0 kilometers away from Thomas, West Virginia







STORIES FROM OUR PARTNERS